Wind_Speed
119 121 122 122 122 122 123 123 123 123 123 125 126 127 129 130 131 132 133 134 134 135 136 137 138 140 142 144 146 147 146 143 140 137 134 132 130 128 126 123 120 117 113 110 106 103 99 96 92 88 84 80 76 72 68 65 61 58 55 52 49 47 44 42 40 38 36 34 33 32 31 30 30 30 30 29 29 29 29 29 29 29 29 29 29 29
121 122 123 123 123 123 123 123 124 124 125 126 128 129 131 132 133 134 135 135 136 137 137 138 140 142 144 146 147 147 145 141 139 136 133 131 129 127 124 121 118 114 111 107 104 100 96 92 89 84 80 76 72 69 65 61 58 55 52 49 47 44 42 40 38 36 34 33 31 31 30 30 29 29 29 29 29 29 29 29 29 29 29 29 29 29
123 123 124 124 124 123 124 124 125 126 127 128 130 131 132 134 135 136 136 137 137 138 139 140 142 144 146 147 147 146 143 140 137 135 132 130 128 125 122 119 115 112 108 104 101 97 93 89 85 81 77 73 69 65 61 58 55 52 49 47 44 42 40 38 36 34 33 31 30 30 29 29 29 29 29 29 29 29 29 29 29 29 29 29 29 29
123 124 124 124 124 124 125 125 127 128 129 130 132 133 134 136 136 137 138 138 138 139 140 142 144 146 147 147 147 144 142 139 136 134 131 129 126 123 119 116 112 109 105 101 97 94 90 86 81 77 73 69 65 61 58 55 52 49 47 44 42 40 38 36 34 33 31 30 29 29 29 29 29 29 29 29 29 29 29 29 29 29 29 29 29 28
124 124 125 125 125 126 127 127 128 130 131 133 134 135 137 137 138 139 139 139 140 141 142 144 146 147 148 147 145 143 140 137 135 132 130 127 124 120 117 113 110 106 102 98 94 90 86 82 78 73 69 65 62 58 55 52 49 46 44 42 40 38 36 34 33 31 30 29 29 29 29 29 29 29 29 29 29 29 29 29 28 29 28 28 28 28
125 125 125 126 126 127 128 129 131 132 134 135 137 138 139 139 140 140 140 141 141 143 145 146 148 148 148 146 144 141 138 136 133 130 128 124 121 118 114 110 106 103 99 95 91 87 83 78 74 70 66 62 58 55 52 49 46 44 42 40 38 36 34 33 31 30 29 29 29 29 29 29 29 29 29 29 29 29 29 28 28 28 28 28 28 28
126 126 127 127 128 129 130 132 133 135 136 137 139 140 140 141 141 141 141 142 143 145 147 148 149 148 147 145 142 139 137 134 131 128 125 122 118 115 111 107 103 99 96 91 87 83 79 75 70 66 62 58 55 52 49 46 44 42 40 38 36 34 33 31 30 29 29 29 29 29 29 29 29 29 29 29 29 29 28 28 28 28 28 28 28 28
127 128 129 130 131 132 133 135 136 137 138 139 140 141 141 142 142 142 143 144 146 147 148 149 149 148 146 143 140 137 134 132 129 126 123 119 115 112 108 104 100 96 92 88 84 79 75 71 66 62 59 55 52 49 46 44 42 40 38 36 34 33 31 30 29 29 29 29 29 29 29 29 29 29 29 29 29 28 28 28 28 28 28 28 28 28
129 130 131 132 133 134 136 137 138 139 140 141 141 141 142 142 143 143 145 147 148 149 149 149 148 146 144 142 138 135 132 129 126 123 120 116 112 108 104 101 97 93 88 84 80 75 71 67 63 59 55 52 49 46 44 42 40 38 36 34 32 31 30 29 29 29 29 29 29 29 29 29 29 29 29 29 28 28 28 28 28 29 29 28 28 28
131 132 133 135 136 137 138 139 140 141 141 141 142 142 142 142 143 145 147 149 150 150 149 148 147 145 142 139 136 133 130 127 124 120 116 113 109 105 101 97 93 89 85 80 76 71 67 63 59 56 52 49 46 44 42 40 38 36 34 32 31 30 29 29 29 29 29 29 29 29 29 29 29 29 29 28 28 28 28 28 28 29 29 29 28 28
134 135 136 137 138 139 139 140 141 141 141 142 142 142 143 143 145 147 148 150 150 150 149 147 145 143 140 137 134 131 127 124 120 117 113 110 106 102 98 94 89 85 81 76 72 67 63 59 56 52 49 47 44 42 40 38 36 34 32 31 30 29 29 29 29 29 29 29 30 30 29 29 29 29 29 28 28 28 28 28 29 29 29 29 29 29
136 137 138 139 139 140 141 141 141 142 142 142 142 143 144 146 147 149 149 150 150 149 147 146 143 141 137 134 131 127 124 121 117 113 110 106 102 98 94 90 86 81 77 72 68 64 60 56 53 50 47 44 42 40 38 36 34 32 31 30 29 29 29 29 29 29 30 30 30 30 29 29 29 29 29 28 28 28 28 28 29 29 29 29 29 29
138 139 139 140 140 141 141 141 142 142 142 142 143 144 146 148 149 150 150 150 149 148 146 143 141 138 135 131 128 124 121 117 113 110 106 102 99 95 90 86 82 77 73 68 64 60 56 53 50 47 45 42 40 38 36 34 32 31 30 29 29 29 29 29 30 30 30 30 30 30 29 29 29 29 29 29 28 28 28 29 29 29 29 29 29 30
140 140 140 141 141 141 141 142 142 142 142 143 144 146 148 149 150 150 150 149 148 146 144 141 138 135 132 129 125 121 117 113 110 106 103 99 95 91 86 82 77 73 69 64 60 57 53 50 47 45 43 40 38 36 34 32 31 30 29 29 29 29 30 30 30 30 30 30 30 30 30 29 29 29 29 29 29 29 29 29 29 29 29 30 30 30
141 141 141 141 141 141 141 141 142 142 143 145 147 148 150 150 151 150 149 148 146 144 142 139 136 132 129 125 121 117 114 110 106 103 99 95 91 87 82 77 73 69 65 60 57 54 51 47 45 43 41 38 36 34 33 31 30 30 29 29 29 30 30 30 30 31 30 30 30 30 30 29 29 29 29 29 29 29 29 29 29 29 30 30 30 31
141 141 141 141 141 141 142 142 142 144 145 147 149 150 151 151 150 149 148 146 144 142 139 136 133 129 126 122 118 114 110 106 103 99 95 91 88 83 78 73 69 65 61 57 54 51 48 45 43 41 39 37 35 33 31 30 30 30 30 30 30 30 30 31 31 31 31 30 30 30 30 29 29 29 29 29 29 29 29 29 29 30 30 31 31 31
141 141 141 141 141 142 142 143 144 146 148 149 150 151 151 150 149 148 146 144 141 139 136 133 129 126 122 119 115 111 107 103 99 96 92 87 83 79 74 69 65 61 58 54 51 48 46 43 41 39 37 35 33 32 31 30 30 30 30 30 30 31 31 31 31 31 31 31 30 30 30 30 30 30 30 29 29 29 29 29 30 30 30 31 31 32
141 141 141 142 142 143 144 145 147 148 149 150 151 151 150 149 148 146 143 141 138 136 133 130 126 122 118 115 111 107 104 99 95 92 87 83 79 74 70 65 61 58 55 52 49 46 43 41 39 37 36 34 33 31 31 30 30 30 30 31 31 31 31 31 31 31 31 31 31 30 30 30 30 30 30 30 30 30 30 30 30 30 31 31 32 32
142 142 142 143 144 145 146 148 149 150 151 151 151 150 149 148 146 143 141 138 135 132 129 126 122 119 115 111 107 104 100 96 92 87 83 78 74 70 66 61 58 55 52 49 46 44 42 40 38 36 34 33 32 31 31 31 31 31 31 31 31 31 31 31 31 31 31 31 31 31 30 30 30 30 30 30 30 30 30 30 31 31 31 32 32 33
143 143 144 145 146 147 148 150 150 151 151 151 150 149 147 145 143 141 138 135 132 129 125 122 118 115 111 107 104 100 97 92 88 83 78 74 70 66 62 58 55 52 49 47 44 42 40 38 36 35 33 32 32 31 31 31 31 31 31 31 31 31 31 32 32 32 31 31 31 31 31 31 31 31 31 31 31 31 31 31 31 32 32 33 33 33
144 145 146 147 148 149 150 150 151 151 150 150 149 147 145 143 140 138 135 132 128 125 121 118 114 110 107 103 100 96 93 88 83 78 74 70 66 62 59 55 52 49 47 45 42 40 38 37 35 34 33 32 32 31 31 31 32 32 32 32 32 32 32 32 32 32 32 32 31 31 31 31 31 31 32 32 32 32 32 32 32 33 33 33 34 34
146 147 148 149 150 150 150 150 151 150 150 148 146 144 142 139 137 134 131 128 125 121 117 113 110 106 103 99 96 92 89 84 78 74 70 66 63 59 56 53 50 47 45 43 41 39 37 36 34 33 33 32 32 32 32 32 32 32 32 32 32 32 32 32 32 32 32 32 32 32 32 32 32 32 32 32 33 33 33 33 33 33 34 34 35 35
148 149 150 150 150 150 150 150 150 149 148 146 144 141 139 136 133 130 127 124 120 116 113 109 106 103 99 96 92 88 84 79 74 70 66 62 59 56 53 50 47 45 43 41 39 37 36 35 34 33 32 32 32 32 32 32 32 32 32 32 32 32 32 32 32 33 33 32 32 32 32 32 32 33 33 33 33 34 34 34 34 34 35 35 36 36
150 150 150 151 150 150 150 149 149 147 146 143 141 138 136 133 130 126 123 119 116 112 109 105 102 99 96 92 88 84 79 75 70 66 62 59 56 53 51 48 45 43 41 39 38 36 35 34 34 33 33 32 32 32 32 32 32 32 32 32 32 32 33 33 33 33 33 33 33 33 33 33 33 33 34 34 34 35 35 35 35 35 36 36 37 37
150 151 150 150 150 149 149 148 147 145 143 140 137 135 132 129 126 122 119 115 111 108 105 102 98 95 92 88 83 79 75 70 66 62 59 56 53 51 48 46 43 41 40 38 37 35 34 34 33 33 33 33 33 33 33 33 33 33 33 33 33 33 33 33 34 34 34 33 33 33 33 33 34 34 35 35 35 36 36 36 36 36 37 37 38 38
151 150 150 149 149 148 147 146 144 142 139 137 134 131 128 125 121 118 114 111 107 104 101 98 95 91 87 83 78 74 70 66 62 59 56 53 51 49 47 44 42 40 38 37 36 35 34 33 33 33 33 33 33 33 33 33 33 33 33 33 33 34 34 34 34 34 34 34 34 34 34 34 34 35 35 36 36 37 37 37 37 37 38 38 39 40
150 149 149 148 147 146 145 143 141 138 136 133 130 127 124 120 117 113 110 107 103 100 97 94 90 87 82 78 73 69 65 62 59 56 53 51 48 46 45 43 40 39 37 36 35 34 34 33 33 33 33 33 33 33 33 33 33 33 33 34 34 34 34 35 35 35 35 35 34 34 34 34 35 35 36 37 37 38 38 38 38 38 39 39 40 41
148 148 147 146 145 144 142 139 137 134 132 129 126 123 119 115 112 109 106 103 99 96 93 90 85 81 77 72 68 65 62 59 56 54 51 48 46 44 43 41 39 38 36 36 35 34 34 33 33 33 33 33 33 33 33 33 33 34 34 34 34 35 35 35 35 36 35 35 35 35 35 35 35 36 37 38 38 39 39 39 39 39 40 41 41 42
147 146 145 144 142 140 138 136 133 130 127 124 121 118 114 111 107 104 101 98 95 92 88 85 80 75 71 68 65 62 59 56 54 51 49 46 44 43 41 40 38 37 36 35 35 34 34 34 34 34 34 34 34 34 34 34 34 34 34 35 35 35 36 36 36 36 36 36 35 35 35 35 36 37 38 39 39 40 40 40 40 40 41 42 43 44
145 144 142 141 139 136 134 131 129 126 123 120 116 113 110 106 103 100 97 94 91 87 83 79 75 71 67 64 61 59 56 54 51 49 46 44 42 41 40 38 37 36 35 34 34 34 34 34 34 34 34 34 34 34 34 34 34 34 35 35 35 36 36 37 37 37 36 36 36 36 36 36 37 38 39 40 40 41 41 41 41 42 42 43 44 45
142 141 139 137 135 132 130 127 124 121 118 115 112 109 105 102 99 96 93 90 86 82 78 74 70 66 63 60 58 56 54 52 49 47 44 42 41 40 38 37 36 36 35 34 34 34 34 34 34 34 34 34 34 34 34 34 35 35 35 36 36 37 37 37 37 37 37 36 36 36 36 37 38 39 40 41 41 42 42 42 42 43 44 45 45 46
139 137 135 133 130 128 125 122 119 116 113 110 107 104 101 98 95 92 89 85 81 77 72 69 66 63 60 58 55 53 51 49 47 45 43 41 39 38 37 36 35 35 35 34 34 34 34 34 34 34 34 34 34 34 35 35 35 35 36 36 37 37 38 38 38 38 37 37 37 37 37 38 39 40 41 42 42 42 42 43 43 44 45 46 47 48
135 133 130 128 125 123 120 117 114 111 109 106 103 100 97 94 91 88 84 80 76 72 68 65 62 60 57 55 53 51 49 47 45 43 41 39 38 37 36 36 35 35 35 35 34 34 34 35 35 34 34 34 35 35 35 35 35 36 36 37 38 38 38 38 38 38 38 38 38 38 38 39 40 41 42 43 43 43 43 44 44 45 46 47 48 49
130 128 126 123 120 118 115 112 110 107 104 101 99 96 93 90 87 83 79 75 71 67 64 61 59 57 55 53 51 49 47 45 43 42 40 38 37 36 36 35 35 35 35 35 35 35 35 35 35 35 35 35 35 35 35 36 36 37 37 38 38 39 39 39 39 38 38 38 38 39 39 40 41 42 43 44 44 44 44 45 45 46 47 48 49 50
125 123 121 118 115 113 110 107 105 102 100 97 95 92 89 85 82 78 74 70 66 63 61 58 56 54 52 50 49 47 46 44 42 40 39 37 36 36 35 35 35 35 34 35 35 35 35 35 35 35 35 36 36 36 36 37 37 38 38 39 39 39 39 39 39 39 39 39 39 40 40 42 43 43 44 44 45 45 45 46 47 47 48 49 50 52
120 118 116 113 110 108 105 103 101 98 96 93 91 88 84 81 77 73 69 65 63 60 58 56 54 52 50 48 47 45 44 42 41 39 38 37 36 35 35 35 35 34 34 35 35 35 35 35 35 36 36 36 37 37 37 38 38 39 39 39 39 39 40 40 39 39 39 40 40 41 42 43 44 44 45 45 45 46 47 47 48 49 50 51 52 53
115 113 111 108 105 103 101 98 96 94 92 89 86 83 79 75 72 68 65 62 59 57 55 53 52 50 48 47 45 44 42 41 40 38 37 36 36 35 35 35 35 34 35 35 35 35 35 36 36 36 37 37 37 38 38 39 39 39 39 40 40 40 40 40 40 40 40 41 41 42 43 44 45 45 45 46 46 47 48 49 49 50 51 53 54 55
110 108 106 103 101 98 96 94 92 90 88 85 82 78 74 71 67 64 61 59 57 55 53 51 50 48 47 45 44 42 41 40 39 38 37 36 35 35 35 35 35 35 35 35 35 36 36 36 37 37 37 38 38 38 39 39 39 40 40 40 40 40 40 40 40 40 41 42 43 44 44 45 45 46 46 47 48 48 49 50 51 52 53 54 55 56
105 103 101 98 96 94 92 90 88 86 83 80 77 73 70 66 63 60 58 56 54 52 51 49 47 46 45 44 42 41 40 39 38 37 37 36 35 35 35 35 35 35 35 35 36 36 37 37 37 38 38 38 39 39 39 39 40 40 40 41 41 41 41 41 41 41 42 43 44 45 45 46 46 46 47 48 49 50 51 52 53 54 55 56 57 58
100 98 96 94 92 90 88 86 84 82 79 76 72 69 65 62 60 58 56 54 52 50 49 47 46 44 43 42 41 40 39 38 37 37 36 36 35 35 35 35 35 35 36 36 36 37 37 37 38 38 39 39 39 40 40 40 40 41 41 41 41 41 41 41 42 42 43 44 45 46 46 47 47 48 48 49 50 51 52 53 55 56 57 58 59 59
96 94 91 89 88 86 84 82 80 77 75 71 68 65 62 59 57 55 54 52 50 48 47 45 44 43 42 41 40 39 38 37 37 36 36 36 35 35 35 36 36 36 36 36 37 37 37 38 38 39 39 40 40 40 41 41 41 41 41 41 42 42 42 42 43 43 44 45 46 46 47 47 48 49 49 50 51 52 53 55 56 58 59 59 60 60
91 89 87 85 84 82 80 78 76 73 70 67 64 61 58 56 54 53 51 50 48 47 45 44 42 41 40 39 38 37 37 36 36 36 35 35 35 35 36 36 36 36 36 36 37 37 38 38 39 39 40 40 40 41 41 41 41 41 42 42 42 42 42 43 44 45 46 46 47 47 48 49 49 50 51 52 53 54 55 57 58 59 60 61 60 60
87 85 83 82 80 78 76 74 71 69 66 63 60 58 56 54 52 51 49 48 47 45 44 42 41 39 38 37 37 36 36 36 35 35 35 35 35 36 36 36 36 36 36 37 37 38 38 39 39 40 40 40 41 41 41 42 42 42 42 42 42 42 43 44 45 46 46 47 48 48 49 50 50 51 52 53 54 56 57 58 59 60 61 61 60 59
83 81 79 78 76 74 72 69 67 65 62 59 57 55 54 52 51 49 48 46 45 43 42 41 40 38 37 36 36 35 35 35 35 35 35 35 35 35 36 36 36 36 37 37 38 39 39 40 40 40 40 40 41 41 41 42 42 42 42 42 42 43 44 45 46 47 47 48 49 50 50 51 51 52 53 54 56 57 58 60 60 60 60 59 59 58
79 77 76 74 72 70 68 65 63 61 59 57 55 53 52 50 49 47 46 45 43 42 41 40 39 38 37 36 35 35 35 35 35 35 35 35 35 35 36 36 36 37 37 38 38 39 40 40 40 40 40 40 40 41 41 42 42 42 42 43 44 45 46 47 47 48 48 49 50 51 51 52 53 54 55 56 58 59 59 60 60 60 59 58 57 56
75 74 72 70 68 66 64 62 60 58 56 54 53 52 50 49 47 46 44 43 42 41 40 39 38 37 36 36 35 35 34 34 34 34 35 35 35 35 36 36 37 37 38 39 39 39 40 40 40 40 40 40 41 41 41 41 42 43 43 44 45 46 47 48 48 49 50 50 51 52 52 53 54 56 57 58 59 60 60 59 59 58 58 57 56 55
72 70 68 66 64 63 61 59 57 55 54 52 51 50 48 47 46 44 43 42 41 40 39 38 38 37 36 36 35 35 34 34 34 35 35 35 35 35 36 37 37 38 39 39 40 40 40 40 40 40 40 41 41 41 41 42 42 43 44 46 46 47 48 49 50 50 51 52 52 53 54 55 56 57 59 59 60 60 59 59 58 57 56 56 56 55
68 66 65 63 61 59 58 56 54 53 52 51 49 48 47 45 44 43 41 40 39 39 38 37 37 36 36 36 35 35 34 34 35 35 35 35 35 36 37 37 38 39 39 40 40 40 40 40 40 40 40 41 41 42 42 43 43 44 46 46 47 48 49 50 51 52 52 53 54 55 56 57 58 59 59 60 60 59 59 58 57 56 56 56 56 56
65 63 61 60 58 57 55 54 52 51 50 49 48 46 45 44 42 41 40 39 38 38 37 37 36 36 36 35 35 35 35 35 35 35 35 36 36 37 37 38 39 39 40 40 40 40 40 40 39 39 40 40 41 42 43 44 45 45 46 47 48 49 50 51 52 53 54 54 55 56 57 58 59 59 59 59 59 59 58 57 56 56 56 56 56 56
62 60 58 57 56 54 53 52 50 49 48 47 46 45 44 42 41 40 39 38 37 37 36 36 36 35 35 35 35 35 35 36 36 36 36 36 37 37 38 39 39 40 40 40 40 40 40 40 39 39 40 40 41 43 44 45 46 46 47 48 49 50 51 53 53 54 55 56 57 58 59 59 59 59 59 59 59 58 58 57 57 56 56 56 57 57
59 57 56 55 53 52 51 50 49 48 47 46 45 44 42 41 40 39 38 37 37 36 36 35 35 35 35 35 35 35 36 36 36 37 37 37 37 38 38 39 39 40 40 40 40 40 39 39 39 40 41 41 42 43 44 45 46 47 48 49 50 51 52 53 54 55 56 58 59 59 60 60 59 59 59 58 58 58 58 58 57 57 57 57 57 57
Wind_Direction
301 302 303 303 303 304 304 304 305 305 305 305 305 306 306 306 306 307 307 307 308 308 308 309 310 311 312 313 314 315 315 316 316 316 316 316 316 316 316 316 316 315 315 314 314 314 313 313 312 312 311 311 310 310 309 308 308 307 306 306 305 304 303 302 300 299 297 295 294 292 291 290 290 290 290 290 290 290 291 291 291 291 291 292 292 292
301 302 302 302 303 303 303 303 304 304 304 304 305 305 305 306 306 306 307 307 307 308 308 309 310 311 312 313 314 315 315 315 315 315 316 316 316 316 315 315 315 315 314 314 313 313 312 312 312 311 311 310 309 309 308 307 307 306 305 304 303 302 301 300 298 297 295 293 292 291 289 289 289 289 289 289 289 290 290 290 290 291 291 291 291 291
301 301 301 302 302 302 302 302 303 303 303 303 304 304 305 305 305 306 306 307 307 308 308 309 310 311 312 313 314 314 314 315 315 315 315 315 315 315 315 315 314 314 313 313 312 312 312 311 311 310 310 309 308 308 307 306 306 305 304 303 302 301 299 298 296 295 293 291 290 289 288 288 288 288 288 288 289 289 289 290 290 290 291 291 291 291
300 300 300 301 301 301 301 301 302 302 302 303 303 304 304 305 305 305 306 306 307 307 308 309 310 311 312 313 314 314 314 314 314 315 315 315 315 315 314 314 314 313 313 312 312 311 311 311 310 309 309 308 307 307 306 305 304 303 302 301 300 299 297 296 294 292 291 289 288 287 287 286 286 287 287 288 288 288 289 289 289 290 290 291 291 291
299 299 300 300 300 300 300 301 301 301 302 302 303 303 304 304 305 305 306 306 307 307 308 309 310 311 312 313 313 314 314 314 314 314 314 314 314 314 314 313 313 312 312 312 311 311 310 310 309 309 308 307 306 306 305 304 303 302 301 300 298 297 295 294 292 290 289 287 286 286 286 286 286 286 286 287 287 288 288 289 289 290 290 291 291 291
298 298 299 299 299 299 300 300 301 301 301 302 302 303 303 304 304 305 305 306 307 308 309 310 311 311 312 313 313 313 313 314 314 314 314 314 314 313 313 313 312 312 311 311 310 310 309 309 308 307 307 306 305 304 304 303 302 300 299 298 296 295 293 292 290 288 287 286 285 285 285 285 285 285 286 286 286 287 288 288 289 289 290 291 291 292
297 298 298 298 298 299 299 299 300 300 301 302 302 303 303 304 304 305 305 306 307 308 309 310 311 311 312 312 313 313 313 313 313 314 313 313 313 313 312 312 312 311 311 310 310 309 309 308 307 306 306 305 304 303 302 301 300 299 297 296 294 293 291 289 288 286 285 284 284 284 284 284 284 284 284 285 285 286 287 288 288 289 290 291 292 292
297 297 297 297 298 298 299 299 300 300 301 301 302 302 303 303 304 305 306 306 307 308 309 310 311 311 312 312 312 313 313 313 313 313 313 313 312 312 312 311 311 310 310 309 309 308 308 307 306 305 304 304 303 302 301 299 298 297 295 294 292 291 289 287 285 284 283 283 283 283 283 283 283 283 283 284 284 285 286 287 288 289 290 291 292 292
296 296 296 297 297 298 298 299 299 300 300 301 301 302 302 303 304 305 306 306 307 308 309 310 311 311 312 312 312 312 312 313 312 312 312 312 312 311 311 311 310 310 309 308 308 307 306 306 305 304 303 302 301 300 299 298 296 295 293 292 290 288 286 285 283 283 282 282 282 282 282 282 282 282 282 282 283 284 285 287 288 289 290 291 292 293
295 295 296 296 297 297 297 298 299 300 300 301 301 302 302 303 304 305 306 307 308 308 309 310 311 311 311 311 312 312 312 312 312 312 312 311 311 311 310 310 309 309 308 308 307 306 305 304 303 302 302 301 299 298 297 296 294 293 291 289 287 286 284 283 282 281 281 281 281 281 281 281 281 281 281 281 282 283 285 286 288 289 291 292 293 294
295 295 295 296 296 297 297 298 298 299 300 300 301 301 302 303 304 305 306 307 308 309 309 310 310 311 311 311 311 312 312 311 311 311 311 311 310 310 310 309 308 308 307 306 306 305 304 303 302 301 300 299 298 297 295 294 292 291 289 287 285 283 282 281 280 280 279 279 280 280 280 279 279 279 280 280 281 283 285 286 288 290 291 292 294 294
294 295 295 295 296 296 297 297 298 299 299 300 300 301 302 303 304 305 306 307 308 308 309 310 310 310 310 311 311 311 311 311 311 310 310 310 310 309 309 308 308 307 306 305 304 303 302 301 301 300 298 297 296 295 294 292 290 288 286 284 282 281 280 279 278 278 278 278 278 279 278 278 278 278 279 280 281 283 285 287 289 290 292 293 294 295
294 294 295 295 295 296 296 297 298 298 299 299 300 301 302 303 305 306 306 307 308 308 309 309 309 310 310 310 310 310 310 310 310 310 309 309 309 308 308 307 307 306 305 304 303 302 301 300 299 298 297 296 294 293 291 290 288 285 283 282 280 279 278 277 277 277 277 277 277 278 277 277 277 277 278 279 281 283 285 287 289 291 293 294 295 296
293 294 294 295 295 295 296 296 297 298 298 299 300 301 303 304 305 306 306 307 308 308 309 309 309 309 310 310 310 310 310 309 309 309 309 308 308 308 307 306 305 305 304 303 302 301 300 299 297 296 295 294 292 291 289 287 285 283 281 279 278 277 276 276 276 276 277 277 277 277 276 277 277 277 278 279 281 283 286 288 290 292 293 295 296 297
293 293 294 294 294 295 296 296 297 298 299 300 301 302 303 304 305 306 306 307 307 308 308 308 309 309 309 309 309 309 309 309 309 308 308 308 307 307 306 305 304 303 302 301 300 299 298 297 296 294 293 292 290 289 286 284 282 280 278 277 276 275 275 275 275 276 276 276 276 276 276 276 276 277 278 280 282 284 286 288 290 292 294 295 297 297
292 293 293 293 294 295 295 296 297 298 299 300 301 302 303 304 305 305 306 307 307 307 308 308 308 309 309 309 309 309 308 308 308 308 307 307 306 306 305 304 303 302 301 300 299 298 297 295 294 292 291 289 288 286 283 281 279 277 276 275 274 274 274 274 275 275 275 275 275 275 275 276 276 277 279 280 282 284 287 289 291 293 294 295 297 298
292 292 293 293 294 295 296 296 297 298 299 301 302 303 303 304 305 305 306 306 307 307 307 308 308 308 308 308 308 308 308 308 307 307 307 306 305 305 304 303 302 301 300 298 297 296 295 293 292 290 289 287 285 283 280 278 276 275 274 273 273 273 273 274 274 274 274 274 274 275 275 276 276 278 279 281 283 285 287 289 291 293 294 295 297 298
291 292 293 293 294 295 296 297 298 299 300 301 302 303 303 304 305 305 306 306 306 307 307 307 308 308 308 307 307 307 307 307 307 306 306 305 304 303 302 301 300 299 298 297 296 294 293 291 289 288 286 284 282 279 277 275 274 273 273 272 272 272 272 273 273 273 273 274 274 275 275 276 277 278 280 281 283 285 287 289 291 292 294 295 296 297
291 292 293 293 294 295 296 297 298 299 300 301 302 302 303 304 304 305 305 306 306 306 307 307 307 307 307 307 307 307 307 306 306 305 305 304 303 302 301 300 299 298 296 295 294 292 290 289 287 285 283 281 279 276 275 273 272 272 272 271 271 271 271 272 272 272 273 273 274 275 275 276 277 279 280 282 284 285 287 289 290 292 293 294 296 297
291 292 293 294 294 295 296 297 298 299 300 301 302 302 303 304 304 305 305 305 306 306 306 306 306 306 306 306 306 306 306 305 305 304 304 303 302 301 300 298 297 296 295 293 292 290 288 286 284 282 280 278 276 274 272 272 271 271 271 271 271 271 271 271 271 272 272 273 274 274 275 276 278 279 280 282 283 285 287 288 290 291 292 293 295 296
291 292 293 294 295 296 297 298 298 299 300 301 302 302 303 303 304 304 305 305 305 306 306 306 306 306 306 306 305 305 305 304 304 303 302 302 301 299 298 297 296 294 293 291 290 288 286 284 281 279 277 275 273 272 271 270 270 270 270 270 270 270 270 270 271 271 272 273 274 275 276 277 278 279 280 282 283 285 286 287 289 290 291 293 294 295
292 292 293 294 295 296 297 298 298 299 300 301 301 302 303 303 304 304 304 305 305 305 305 305 305 305 305 305 305 304 304 303 303 302 301 300 299 298 297 296 294 293 291 289 287 285 283 281 279 277 275 273 271 270 269 269 269 269 269 269 269 269 269 270 271 271 272 273 274 275 276 277 278 279 280 281 283 284 285 287 288 289 291 292 293 294
292 293 294 294 295 296 297 298 298 299 300 300 301 302 302 303 303 304 304 304 305 305 305 305 304 304 304 304 304 304 303 302 301 301 300 299 298 297 295 294 292 291 289 287 285 283 280 278 276 274 272 271 270 269 268 268 268 268 268 268 268 268 269 269 270 271 272 273 274 275 276 276 277 278 280 281 282 283 285 286 287 289 290 291 293 294
292 293 294 294 295 296 297 297 298 299 300 300 301 302 302 303 303 303 304 304 304 304 304 304 304 304 304 303 303 302 302 301 300 299 299 297 296 295 293 292 290 288 287 284 282 280 278 276 274 272 271 269 268 268 267 267 267 267 267 267 267 268 268 269 270 271 272 273 274 274 275 276 277 278 279 280 282 283 284 286 287 288 290 291 293 294
292 293 294 294 295 296 297 297 298 299 300 300 301 301 302 302 303 303 303 303 303 303 303 303 303 303 303 302 302 301 301 300 299 298 297 296 295 293 291 290 288 286 284 282 280 278 275 273 271 270 269 268 267 266 266 266 266 266 266 266 266 267 267 268 269 270 271 272 273 274 275 276 277 278 279 281 282 283 284 285 287 288 290 291 293 294
292 293 293 294 295 296 297 297 298 299 299 300 301 301 301 302 302 302 303 303 303 303 303 302 302 302 302 301 301 300 299 299 298 297 295 294 293 291 289 288 286 284 282 280 277 275 273 271 269 268 267 266 265 265 265 265 265 265 265 265 266 266 267 268 269 270 271 272 273 274 275 276 277 278 279 280 282 283 284 285 287 288 290 291 292 294
292 293 293 294 295 296 297 297 298 299 299 300 300 301 301 301 302 302 302 302 302 302 302 302 301 301 301 300 299 299 298 297 296 295 294 292 291 289 288 286 284 282 280 277 275 273 271 269 268 266 266 265 264 264 264 264 264 264 264 265 265 266 267 268 269 270 271 273 274 274 275 276 277 278 279 281 282 283 284 285 287 288 290 291 292 294
292 293 294 294 295 296 297 297 298 299 299 299 300 300 301 301 301 301 301 301 301 301 301 301 300 300 299 299 298 298 297 296 295 294 292 291 289 287 286 284 282 280 278 276 273 271 269 267 266 265 264 264 264 263 263 263 263 264 264 265 266 266 268 269 270 271 272 273 274 275 276 277 278 279 280 281 282 283 284 285 287 288 289 291 292 293
292 293 294 294 295 296 297 297 298 298 299 299 299 300 300 300 300 300 300 301 301 300 300 300 299 299 298 298 297 297 296 294 293 292 290 289 287 285 284 282 280 278 276 274 272 270 268 266 265 264 263 263 263 263 263 263 263 263 264 265 266 267 268 269 270 271 272 273 274 275 276 277 278 279 280 281 282 283 284 286 287 288 289 291 292 293
292 293 294 294 295 296 296 297 297 298 298 299 299 299 299 300 300 300 300 300 300 300 299 299 298 298 297 297 296 295 294 293 292 290 289 287 285 283 282 280 278 276 274 272 270 268 266 265 264 263 263 262 262 262 262 263 263 264 264 265 266 267 268 269 270 272 273 274 275 276 277 277 278 279 280 281 282 283 284 286 287 288 290 291 292 293
292 293 294 294 295 296 296 297 297 297 298 298 298 299 299 299 299 299 299 299 299 299 298 298 297 296 296 296 295 294 293 291 290 288 287 285 283 281 280 278 276 274 272 270 268 266 265 264 263 263 262 262 262 262 262 262 263 264 264 265 266 267 268 270 271 272 274 275 276 277 277 278 279 280 280 281 282 284 285 286 287 289 290 291 292 293
292 293 294 294 295 295 296 296 297 297 297 297 298 298 298 298 298 299 299 298 298 298 297 297 296 295 295 294 293 292 291 290 288 286 285 283 281 279 278 276 274 272 270 268 266 265 264 263 263 262 262 261 261 262 262 263 263 264 265 265 266 268 269 270 272 273 275 276 277 277 278 279 279 280 281 282 283 284 285 287 288 289 290 291 292 293
292 293 293 294 295 295 295 296 296 296 296 297 297 297 297 298 298 298 298 298 297 297 296 295 295 294 294 293 292 291 289 288 286 284 283 281 279 277 276 274 272 270 269 267 265 264 263 262 262 262 261 261 261 262 262 263 263 264 265 266 267 268 270 271 273 274 276 277 277 278 279 279 280 281 281 282 283 285 286 287 288 289 290 292 293 294
292 293 293 294 294 295 295 295 295 296 296 296 296 297 297 297 297 297 297 297 296 295 295 294 294 293 293 292 290 289 287 286 284 283 281 279 277 275 274 272 270 268 267 265 264 263 262 261 260 260 260 261 261 262 262 263 263 264 265 266 268 269 271 273 274 276 277 278 278 279 279 280 280 281 282 283 285 286 287 288 289 290 291 292 293 294
292 292 293 293 294 294 294 294 295 295 295 295 296 296 296 297 297 296 296 296 295 294 294 293 293 292 291 290 288 287 285 284 283 281 279 277 275 274 272 270 268 267 265 264 263 262 260 260 259 259 259 260 261 261 262 262 264 265 266 267 269 271 273 274 276 277 278 278 279 280 280 281 281 282 283 285 286 287 288 289 290 291 292 293 294 295
291 292 292 293 293 293 293 294 294 294 294 295 295 296 296 296 296 295 295 294 294 293 293 292 291 290 289 288 286 285 283 282 281 279 277 275 274 272 270 269 267 266 264 263 262 261 259 259 259 259 259 259 260 261 262 263 264 266 267 269 271 272 274 275 276 278 279 279 280 280 281 282 282 283 285 286 287 288 289 290 291 291 292 293 294 295
291 291 292 292 292 293 293 293 293 293 294 294 295 295 295 295 295 294 294 293 293 292 292 291 290 289 288 286 285 283 282 280 279 277 275 274 272 271 269 268 266 265 263 262 261 260 259 259 259 259 259 259 260 261 263 265 266 268 269 271 272 274 275 276 278 279 280 280 281 281 282 283 284 285 286 288 289 289 290 291 292 292 293 294 294 295
290 291 291 291 292 292 292 292 292 293 293 294 294 294 294 294 294 293 293 292 292 291 291 290 289 288 286 285 284 282 281 279 277 276 274 273 271 269 268 266 265 264 262 261 261 260 259 259 259 259 260 261 262 263 265 266 268 269 271 273 274 275 277 278 279 280 281 281 282 282 283 284 285 287 288 289 290 290 291 292 292 293 294 294 295 295
290 290 290 291 291 291 291 292 292 292 293 293 293 294 293 293 293 292 292 291 291 290 290 288 287 286 285 284 282 281 279 278 276 275 273 272 270 269 267 265 264 263 262 261 261 260 260 260 261 261 262 263 264 265 267 268 270 272 273 275 276 277 278 279 280 281 282 282 283 283 285 286 287 288 289 290 291 291 292 293 293 294 294 295 295 296
289 289 290 290 290 290 291 291 291 292 292 293 293 293 292 292 292 291 291 291 290 289 288 287 286 285 283 282 281 279 278 277 275 274 273 271 270 268 266 265 263 262 262 262 262 262 262 262 263 263 264 265 266 267 269 270 272 274 275 276 278 279 280 281 282 282 283 283 284 285 286 288 289 289 290 291 291 292 293 293 294 294 295 295 296 296
288 289 289 289 290 290 290 291 291 291 292 292 292 292 291 291 291 291 290 290 289 288 287 286 284 283 282 280 279 278 277 275 274 273 272 271 269 268 266 265 263 263 262 262 262 263 263 263 264 265 266 267 268 269 271 272 274 275 277 278 279 281 282 282 283 283 284 284 285 287 288 289 289 290 291 292 292 293 293 294 294 295 295 296 296 297
288 288 288 289 289 289 290 290 290 290 291 291 291 291 290 290 290 290 289 289 288 287 285 284 283 281 280 279 278 277 275 274 273 272 271 270 269 267 266 265 264 264 263 263 263 264 264 265 265 266 267 268 269 271 272 274 276 277 278 280 281 282 283 283 284 284 285 286 287 288 289 289 290 291 291 292 293 293 294 294 295 295 296 296 296 297
287 288 288 288 289 289 289 289 289 290 290 290 290 290 289 289 289 288 288 287 286 285 284 282 281 279 278 277 276 275 274 273 272 271 271 269 268 267 266 265 265 264 264 263 263 264 265 266 266 267 268 270 271 273 274 276 278 279 280 281 283 283 284 284 284 285 286 287 288 289 289 290 291 291 292 293 293 294 294 295 295 295 296 296 297 297
287 287 287 288 288 288 288 288 289 289 289 289 289 289 288 288 288 287 286 286 285 284 282 280 279 277 276 274 274 274 273 272 271 271 270 269 268 268 267 266 265 265 264 264 264 264 265 266 267 269 270 272 273 275 277 278 280 281 282 283 283 284 284 285 286 286 287 288 289 289 290 291 291 292 293 293 294 294 294 295 295 296 296 297 297 297
286 287 287 287 287 287 287 287 287 288 288 287 287 287 287 287 286 286 285 284 283 282 280 279 277 275 274 272 272 272 272 271 271 270 270 269 269 268 267 266 265 265 265 265 265 266 267 268 269 271 273 274 276 277 279 280 281 283 283 284 284 284 285 285 286 287 288 288 289 290 290 291 292 293 293 294 294 295 295 295 296 296 297 297 297 298
286 286 286 286 286 287 286 286 286 286 286 286 286 286 286 286 285 285 284 283 282 280 279 277 275 274 272 271 271 271 271 271 270 270 270 269 269 268 268 267 266 266 266 266 267 268 269 270 272 274 275 277 278 279 280 281 283 283 284 284 285 285 286 287 287 288 288 289 290 291 292 293 293 294 294 295 295 295 296 296 296 297 297 298 298 298
285 285 285 285 285 285 285 285 285 285 285 285 285 285 285 284 284 283 282 281 280 279 277 276 274 273 271 271 270 270 270 270 270 270 270 270 269 269 268 268 267 267 267 268 269 270 271 273 274 276 277 278 279 280 281 282 283 284 284 285 286 286 287 288 288 289 289 290 291 292 293 294 294 295 295 296 296 296 296 296 297 297 298 298 299 299
284 284 284 284 284 284 284 284 284 284 284 284 284 284 283 283 282 281 280 279 278 277 276 274 273 272 271 270 270 269 269 269 269 270 270 269 269 269 269 268 268 269 269 270 271 272 273 275 276 277 278 279 280 281 282 283 283 284 285 286 286 287 288 288 289 289 290 291 292 293 294 295 295 296 296 296 296 297 297 297 298 298 299 299 299 299
283 283 283 283 283 282 282 282 282 282 283 283 283 282 282 281 280 279 278 277 276 275 274 273 272 271 270 269 269 269 269 269 269 269 269 269 269 269 269 269 269 270 270 271 272 273 274 275 276 277 278 279 281 282 283 283 284 285 285 286 287 288 288 289 290 291 292 293 294 294 295 296 296 297 297 297 297 297 298 298 299 299 300 300 300 300
282 282 282 282 281 281 281 281 281 281 281 281 281 280 280 279 277 276 275 274 273 272 272 271 270 270 269 269 268 268 268 268 268 268 268 268 268 268 269 269 270 270 271 272 273 274 275 276 277 277 278 279 280 282 283 284 284 285 286 287 287 288 289 289 291 292 293 294 295 296 296 297 297 297 297 297 298 298 298 299 300 300 300 301 301 300
281 281 280 280 280 280 280 280 280 280 280 280 279 278 277 276 275 274 273 271 270 270 270 269 269 269 268 268 268 267 267 267 267 267 267 268 268 269 269 270 270 271 272 273 273 274 275 277 278 279 279 279 280 281 283 284 285 286 287 287 288 288 289 291 292 293 294 295 296 296 297 297 298 298 298 298 298 299 300 300 301 301 301 301 301 301
Height
10602 10600 10599 10598 10597 10595 10593 10591 10591 10590 10587 10584 10582 10580 10579 10577 10574 10572 10570 10568 10565 10563 10560 10558 10555 10552 10549 10545 10542 10539 10535 10532 10529 10525 10522 10519 10515 10511 10507 10504 10500 10497 10494 10490 10487 10485 10482 10479 10477 10475 10472 10470 10468 10466 10464 10462 10460 10459 10458 10457 10455 10454 10454 10453 10452 10452 10451 10450 10450 10449 10449 10448 10448 10448 10447 10447 10447 10447 10447 10446 10445 10445 10445 10444 10444 10444
10596 10595 10593 10592 10592 10591 10589 10586 10585 10584 10583 10580 10578 10576 10574 10572 10570 10567 10565 10563 10560 10557 10555 10553 10550 10547 10544 10540 10537 10534 10530 10527 10523 10520 10516 10513 10509 10505 10501 10498 10494 10491 10488 10485 10482 10480 10477 10474 10472 10470 10467 10465 10464 10462 10460 10459 10457 10455 10454 10453 10452 10451 10450 10450 10449 10449 10448 10447 10447 10447 10446 10446 10445 10445 10445 10445 10445 10444 10444 10444 10444 10443 10442 10442 10442 10442
10592 10590 10588 10587 10587 10585 10584 10582 10580 10579 10577 10575 10574 10571 10569 10567 10565 10562 10560 10559 10555 10553 10550 10547 10545 10542 10539 10535 10532 10529 10525 10521 10517 10514 10510 10507 10504 10500 10496 10492 10489 10486 10483 10480 10477 10475 10472 10470 10467 10465 10463 10461 10459 10457 10456 10455 10453 10452 10451 10450 10449 10448 10447 10447 10446 10446 10445 10445 10445 10444 10444 10444 10443 10443 10443 10442 10442 10442 10442 10442 10441 10440 10440 10440 10439 10439
10587 10586 10584 10582 10581 10580 10578 10577 10575 10574 10572 10570 10568 10566 10564 10562 10559 10557 10555 10553 10551 10549 10545 10542 10540 10537 10534 10530 10527 10522 10519 10515 10511 10508 10505 10501 10497 10494 10490 10487 10484 10480 10478 10475 10472 10470 10467 10465 10463 10460 10459 10457 10455 10454 10452 10451 10450 10449 10447 10447 10446 10445 10445 10444 10444 10443 10443 10442 10442 10442 10442 10441 10441 10440 10440 10440 10440 10440 10439 10439 10439 10439 10438 10438 10437 10437
10582 10581 10579 10578 10576 10574 10572 10571 10570 10568 10566 10564 10562 10560 10559 10557 10554 10552 10549 10547 10545 10542 10540 10537 10534 10532 10529 10525 10521 10517 10513 10509 10505 10502 10499 10495 10492 10488 10485 10482 10479 10475 10472 10470 10467 10465 10462 10460 10458 10456 10454 10453 10451 10450 10449 10447 10446 10445 10444 10444 10443 10442 10442 10441 10441 10440 10440 10440 10440 10439 10439 10439 10439 10439 10438 10438 10437 10437 10437 10437 10437 10436 10436 10435 10435 10435
10576 10575 10575 10574 10571 10569 10567 10565 10564 10562 10560 10558 10555 10553 10552 10550 10549 10546 10544 10541 10539 10536 10533 10530 10528 10525 10523 10520 10516 10512 10507 10503 10499 10496 10493 10489 10486 10482 10479 10476 10473 10470 10467 10465 10462 10460 10457 10455 10454 10452 10450 10449 10447 10446 10445 10444 10443 10442 10441 10440 10440 10439 10439 10439 10438 10438 10437 10437 10437 10437 10437 10437 10437 10436 10436 10435 10435 10435 10435 10435 10434 10434 10434 10433 10433 10432
10571 10570 10569 10568 10566 10564 10562 10560 10559 10557 10555 10553 10549 10546 10544 10543 10541 10540 10538 10536 10534 10531 10528 10525 10522 10519 10516 10514 10510 10506 10502 10497 10493 10490 10487 10484 10480 10477 10474 10471 10468 10465 10462 10460 10457 10455 10453 10451 10449 10448 10446 10445 10444 10442 10442 10440 10440 10439 10438 10437 10437 10437 10436 10436 10435 10435 10435 10435 10435 10435 10435 10434 10434 10434 10434 10434 10433 10433 10433 10432 10432 10432 10431 10431 10430 10430
10567 10565 10562 10561 10560 10559 10556 10554 10552 10550 10550 10548 10545 10541 10539 10536 10534 10532 10530 10529 10527 10525 10523 10520 10516 10512 10509 10506 10504 10500 10496 10492 10488 10484 10481 10477 10475 10472 10469 10465 10463 10460 10457 10455 10453 10450 10449 10447 10445 10444 10442 10441 10440 10439 10438 10437 10437 10435 10435 10435 10434 10434 10434 10433 10433 10433 10433 10432 10432 10432 10432 10432 10432 10432 10432 10431 10431 10430 10430 10430 10430 10429 10429 10429 10429 10428
10562 10560 10558 10555 10554 10553 10551 10549 10546 10544 10543 10542 10539 10537 10534 10532 10529 10527 10524 10520 10519 10517 10517 10515 10512 10507 10504 10500 10497 10494 10490 10487 10482 10479 10475 10472 10469 10467 10464 10460 10458 10455 10453 10450 10449 10446 10444 10443 10441 10440 10439 10438 10437 10436 10435 10434 10434 10433 10432 10432 10432 10431 10431 10430 10430 10430 10430 10430 10430 10430 10430 10430 10430 10429 10429 10429 10429 10429 10429 10428 10428 10427 10427 10427 10426 10425
10556 10555 10553 10551 10549 10547 10546 10544 10542 10539 10537 10536 10534 10531 10529 10527 10526 10524 10520 10516 10512 10510 10509 10507 10505 10502 10499 10494 10490 10487 10484 10480 10477 10473 10470 10467 10464 10462 10459 10456 10453 10450 10448 10446 10444 10442 10440 10439 10437 10436 10435 10434 10434 10432 10432 10431 10430 10430 10429 10429 10429 10429 10429 10428 10428 10428 10428 10428 10428 10428 10428 10427 10427 10427 10427 10427 10427 10426 10426 10426 10425 10425 10425 10424 10424 10423
10551 10549 10547 10545 10544 10542 10540 10539 10537 10535 10533 10531 10529 10526 10523 10521 10520 10519 10516 10512 10508 10505 10503 10500 10498 10495 10492 10490 10486 10482 10478 10475 10471 10468 10465 10462 10459 10457 10454 10451 10449 10446 10444 10442 10440 10438 10436 10435 10434 10432 10432 10431 10430 10429 10429 10428 10427 10427 10427 10426 10426 10426 10426 10425 10425 10425 10425 10425 10425 10425 10425 10425 10425 10425 10425 10425 10424 10424 10424 10424 10423 10422 10422 10422 10421 10420
10546 10544 10543 10541 10539 10537 10535 10533 10531 10529 10527 10525 10524 10521 10518 10515 10513 10512 10510 10507 10504 10500 10499 10496 10492 10489 10486 10484 10480 10477 10473 10470 10466 10463 10460 10457 10454 10452 10449 10446 10444 10442 10439 10437 10435 10434 10432 10431 10430 10429 10429 10427 10427 10426 10425 10425 10425 10424 10424 10424 10424 10424 10424 10424 10424 10423 10423 10423 10423 10423 10423 10423 10423 10422 10422 10422 10422 10422 10422 10421 10420 10420 10420 10419 10419 10418
10540 10539 10537 10536 10534 10532 10530 10529 10526 10524 10522 10519 10518 10516 10514 10511 10509 10506 10504 10501 10498 10495 10493 10490 10487 10484 10480 10477 10475 10472 10468 10464 10461 10458 10455 10452 10449 10447 10444 10442 10439 10437 10435 10434 10432 10430 10429 10428 10427 10425 10425 10424 10424 10423 10423 10422 10422 10422 10422 10421 10421 10421 10421 10421 10421 10421 10421 10420 10420 10420 10420 10420 10420 10420 10420 10420 10420 10419 10419 10419 10418 10418 10417 10417 10416 10415
10535 10534 10532 10530 10529 10526 10525 10524 10522 10519 10517 10514 10512 10511 10509 10506 10504 10501 10499 10496 10492 10489 10487 10484 10481 10477 10474 10472 10469 10466 10462 10459 10455 10453 10450 10447 10445 10442 10440 10437 10435 10433 10431 10429 10428 10426 10425 10424 10424 10422 10422 10421 10420 10420 10420 10419 10419 10419 10419 10419 10419 10419 10419 10419 10419 10419 10419 10418 10418 10418 10418 10418 10418 10417 10417 10417 10417 10417 10417 10416 10415 10415 10415 10414 10414 10413
10530 10529 10527 10525 10523 10521 10519 10518 10517 10514 10512 10509 10507 10505 10503 10500 10497 10495 10492 10490 10487 10484 10481 10478 10474 10471 10468 10465 10464 10461 10458 10454 10450 10447 10445 10442 10439 10437 10435 10433 10430 10429 10427 10425 10424 10423 10422 10421 10420 10419 10419 10418 10417 10417 10417 10417 10417 10417 10417 10416 10416 10416 10416 10416 10416 10416 10416 10416 10415 10415 10415 10415 10415 10415 10415 10415 10414 10414 10414 10414 10413 10412 10412 10412 10411 10410
10524 10522 10522 10520 10518 10515 10514 10512 10511 10509 10507 10504 10501 10499 10497 10495 10492 10489 10487 10484 10481 10478 10475 10472 10469 10465 10462 10459 10457 10455 10453 10449 10445 10442 10440 10437 10435 10432 10430 10429 10426 10424 10423 10422 10420 10419 10419 10417 10417 10416 10415 10415 10415 10415 10414 10414 10414 10414 10414 10414 10414 10414 10414 10414 10414 10414 10414 10413 10413 10413 10413 10413 10412 10412 10412 10412 10412 10412 10411 10410 10410 10410 10409 10409 10409 10408
10517 10516 10515 10514 10512 10510 10508 10506 10505 10503 10501 10499 10496 10494 10491 10489 10487 10484 10482 10479 10475 10472 10469 10466 10463 10460 10457 10453 10450 10448 10447 10444 10440 10437 10435 10432 10430 10428 10426 10424 10422 10420 10419 10418 10417 10416 10415 10414 10414 10413 10412 10412 10412 10412 10412 10412 10412 10412 10412 10411 10411 10411 10411 10411 10411 10411 10410 10410 10410 10410 10410 10410 10410 10410 10409 10409 10409 10409 10409 10408 10407 10407 10407 10406 10405 10405
10512 10510 10509 10509 10507 10505 10502 10500 10499 10497 10495 10493 10490 10487 10485 10483 10480 10479 10476 10473 10470 10467 10464 10460 10457 10454 10451 10448 10445 10443 10441 10439 10435 10432 10430 10427 10425 10423 10422 10420 10418 10416 10415 10414 10413 10412 10412 10411 10410 10410 10410 10409 10409 10409 10409 10409 10409 10409 10409 10409 10409 10409 10409 10409 10409 10409 10408 10408 10408 10408 10407 10407 10407 10407 10407 10407 10406 10406 10405 10405 10405 10404 10404 10404 10403 10402
10505 10504 10504 10503 10502 10499 10497 10494 10492 10491 10490 10487 10485 10482 10480 10477 10475 10472 10470 10467 10464 10461 10458 10455 10451 10448 10445 10443 10440 10437 10435 10434 10430 10427 10425 10423 10420 10419 10417 10415 10414 10412 10412 10410 10410 10409 10409 10408 10407 10407 10407 10407 10407 10407 10406 10406 10406 10406 10406 10406 10406 10406 10406 10406 10405 10405 10405 10405 10405 10405 10405 10405 10404 10404 10404 10404 10404 10404 10403 10403 10402 10402 10401 10401 10400 10400
10500 10499 10497 10497 10496 10494 10492 10489 10486 10485 10484 10482 10480 10477 10474 10472 10469 10467 10464 10461 10458 10455 10452 10449 10446 10443 10440 10437 10435 10432 10430 10428 10425 10422 10420 10418 10416 10414 10413 10412 10410 10409 10408 10407 10407 10406 10405 10405 10404 10404 10404 10404 10404 10404 10404 10404 10404 10404 10404 10404 10404 10404 10404 10403 10403 10403 10403 10403 10402 10402 10402 10402 10402 10402 10401 10401 10401 10400 10400 10400 10400 10399 10399 10398 10397 10397
10495 10493 10491 10490 10490 10489 10487 10484 10481 10479 10478 10476 10474 10472 10469 10466 10464 10460 10457 10455 10452 10449 10446 10443 10440 10437 10434 10432 10429 10427 10425 10423 10420 10418 10415 10414 10412 10410 10409 10408 10407 10405 10404 10404 10403 10403 10402 10402 10402 10401 10401 10401 10401 10401 10401 10401 10401 10401 10401 10401 10401 10401 10400 10400 10400 10400 10400 10400 10400 10400 10400 10399 10399 10399 10399 10399 10399 10398 10398 10397 10397 10396 10396 10395 10395 10394
10490 10488 10486 10485 10484 10482 10481 10479 10477 10474 10472 10470 10469 10467 10464 10461 10458 10455 10452 10449 10446 10444 10440 10437 10435 10432 10429 10427 10424 10422 10420 10418 10415 10413 10411 10409 10407 10405 10405 10404 10403 10402 10401 10400 10400 10400 10399 10399 10399 10399 10399 10399 10399 10399 10398 10399 10399 10399 10399 10398 10398 10398 10398 10398 10398 10397 10397 10397 10397 10397 10397 10397 10397 10396 10396 10396 10395 10395 10395 10395 10394 10394 10393 10392 10392 10391
10484 10483 10481 10480 10478 10477 10475 10473 10471 10469 10467 10465 10463 10460 10458 10455 10453 10450 10447 10444 10441 10438 10435 10432 10429 10427 10424 10422 10419 10417 10415 10412 10410 10409 10407 10405 10403 10402 10401 10400 10399 10399 10398 10397 10397 10397 10396 10396 10395 10395 10395 10395 10395 10395 10395 10395 10395 10395 10395 10395 10395 10395 10395 10395 10395 10395 10395 10395 10395 10394 10394 10394 10394 10394 10394 10393 10393 10392 10392 10392 10391 10390 10390 10389 10389 10388
10479 10477 10476 10474 10473 10471 10469 10467 10465 10464 10462 10459 10457 10455 10452 10449 10447 10444 10441 10439 10435 10433 10430 10427 10424 10421 10419 10416 10414 10412 10409 10408 10406 10404 10402 10400 10399 10398 10397 10397 10395 10395 10394 10394 10394 10394 10394 10393 10393 10393 10393 10393 10393 10393 10393 10393 10393 10393 10393 10393 10393 10393 10393 10392 10392 10392 10392 10392 10392 10392 10392 10392 10391 10391 10390 10390 10390 10390 10389 10389 10389 10388 10387 10386 10385 10385
10473 10472 10470 10469 10467 10465 10464 10462 10460 10458 10456 10454 10452 10449 10446 10444 10440 10438 10435 10433 10430 10427 10424 10422 10419 10415 10413 10411 10409 10407 10404 10403 10401 10400 10398 10397 10395 10394 10393 10393 10392 10392 10391 10391 10391 10390 10390 10390 10390 10390 10390 10390 10390 10390 10390 10390 10390 10390 10390 10390 10390 10390 10390 10390 10390 10390 10390 10390 10389 10389 10389 10389 10389 10388 10388 10387 10387 10387 10386 10386 10385 10385 10384 10383 10382 10382
10468 10467 10465 10464 10462 10460 10458 10456 10454 10452 10450 10448 10445 10443 10440 10437 10435 10432 10429 10427 10424 10422 10419 10416 10413 10410 10408 10406 10404 10402 10400 10399 10397 10395 10394 10393 10392 10390 10389 10389 10389 10389 10388 10388 10388 10388 10387 10387 10387 10387 10387 10387 10387 10387 10387 10387 10387 10388 10388 10388 10388 10387 10387 10387 10387 10387 10387 10387 10387 10387 10387 10386 10385 10385 10385 10384 10384 10384 10383 10382 10382 10382 10380 10380 10379 10379
10462 10461 10460 10458 10456 10454 10452 10450 10449 10446 10444 10442 10439 10437 10434 10432 10429 10426 10423 10421 10419 10417 10414 10410 10408 10405 10403 10400 10399 10397 10395 10394 10392 10391 10390 10389 10388 10387 10385 10385 10385 10385 10385 10385 10384 10385 10385 10384 10384 10385 10385 10385 10385 10385 10385 10385 10385 10385 10385 10385 10385 10385 10385 10385 10385 10384 10384 10384 10384 10384 10384 10383 10383 10382 10382 10381 10380 10380 10380 10379 10379 10378 10377 10377 10376 10375
10457 10455 10454 10452 10450 10449 10447 10444 10442 10440 10438 10435 10433 10430 10428 10426 10424 10420 10417 10415 10414 10410 10408 10405 10403 10400 10398 10396 10394 10392 10391 10390 10388 10387 10386 10385 10384 10383 10382 10382 10382 10382 10382 10382 10381 10382 10382 10382 10382 10382 10382 10382 10382 10382 10382 10382 10382 10382 10382 10382 10382 10382 10382 10382 10382 10382 10382 10381 10381 10381 10380 10380 10380 10379 10379 10378 10377 10377 10377 10376 10375 10375 10374 10373 10372 10372
10452 10450 10449 10447 10445 10443 10441 10439 10436 10434 10432 10429 10427 10425 10422 10420 10418 10415 10412 10410 10408 10405 10402 10400 10398 10395 10394 10392 10390 10388 10387 10385 10384 10384 10382 10382 10380 10379 10379 10379 10379 10379 10379 10379 10379 10379 10379 10379 10379 10379 10379 10379 10379 10379 10380 10380 10380 10380 10380 10380 10379 10379 10379 10379 10379 10379 10379 10379 10378 10378 10377 10377 10377 10376 10375 10375 10374 10374 10373 10373 10372 10371 10370 10370 10369 10368
10446 10444 10442 10440 10439 10437 10435 10433 10430 10428 10425 10423 10421 10419 10417 10415 10412 10410 10407 10405 10402 10400 10397 10395 10392 10390 10389 10387 10385 10384 10382 10381 10380 10380 10379 10379 10377 10376 10376 10376 10375 10375 10375 10375 10375 10375 10375 10375 10376 10376 10376 10376 10377 10377 10377 10377 10377 10377 10377 10377 10377 10377 10376 10376 10375 10375 10375 10375 10375 10375 10374 10374 10374 10373 10372 10371 10370 10370 10370 10369 10369 10368 10367 10366 10365 10364
10440 10439 10437 10434 10432 10430 10429 10426 10424 10421 10419 10417 10415 10413 10411 10409 10407 10405 10402 10400 10397 10395 10392 10390 10388 10385 10384 10383 10381 10380 10378 10377 10377 10376 10375 10375 10374 10373 10373 10373 10372 10372 10372 10373 10373 10372 10372 10372 10373 10374 10374 10374 10374 10374 10374 10374 10374 10374 10374 10374 10374 10374 10373 10373 10372 10372 10372 10372 10372 10372 10371 10370 10370 10369 10369 10368 10367 10367 10366 10365 10365 10364 10364 10362 10362 10360
10434 10432 10430 10429 10427 10424 10422 10420 10417 10415 10413 10411 10409 10407 10405 10404 10402 10399 10397 10394 10392 10390 10387 10385 10383 10381 10379 10378 10377 10376 10375 10374 10373 10372 10372 10372 10370 10370 10370 10370 10369 10369 10369 10370 10370 10370 10370 10370 10370 10370 10371 10371 10371 10371 10372 10372 10372 10372 10371 10371 10370 10370 10370 10370 10370 10370 10369 10369 10369 10369 10368 10367 10367 10366 10365 10364 10364 10364 10363 10362 10362 10360 10360 10359 10358 10357
10428 10426 10424 10422 10420 10419 10416 10414 10411 10409 10407 10405 10403 10402 10400 10398 10396 10394 10392 10389 10387 10385 10382 10380 10379 10377 10375 10374 10373 10372 10371 10370 10369 10369 10369 10368 10367 10367 10367 10367 10367 10366 10366 10367 10367 10367 10367 10367 10367 10367 10368 10368 10368 10369 10369 10369 10369 10369 10368 10368 10367 10367 10367 10367 10367 10367 10366 10366 10365 10365 10365 10364 10363 10362 10362 10361 10360 10360 10359 10359 10358 10357 10356 10355 10354 10352
10422 10420 10419 10417 10414 10412 10410 10407 10405 10403 10401 10399 10397 10396 10395 10393 10390 10389 10386 10384 10382 10380 10378 10376 10374 10373 10371 10370 10369 10368 10367 10366 10366 10365 10365 10365 10364 10364 10364 10364 10364 10364 10364 10364 10364 10364 10364 10364 10364 10364 10365 10365 10365 10365 10365 10365 10365 10365 10365 10365 10364 10364 10364 10364 10364 10364 10363 10363 10362 10362 10361 10360 10359 10359 10358 10357 10357 10356 10355 10355 10354 10353 10352 10351 10350 10349
10416 10414 10412 10410 10408 10406 10404 10401 10399 10397 10395 10394 10392 10390 10389 10387 10385 10383 10381 10379 10377 10375 10373 10372 10370 10369 10367 10366 10365 10364 10363 10363 10362 10362 10362 10362 10361 10361 10360 10360 10360 10360 10360 10360 10361 10361 10361 10361 10361 10362 10362 10362 10362 10362 10362 10362 10362 10362 10362 10362 10362 10361 10361 10361 10361 10360 10360 10360 10359 10359 10357 10357 10356 10355 10354 10354 10353 10352 10352 10351 10350 10349 10348 10347 10346 10345
10410 10408 10406 10404 10402 10400 10397 10395 10393 10391 10389 10388 10387 10385 10384 10382 10380 10378 10376 10374 10372 10370 10369 10367 10365 10365 10364 10362 10362 10361 10360 10359 10359 10359 10359 10359 10359 10358 10358 10357 10357 10358 10358 10358 10358 10358 10359 10359 10359 10359 10359 10359 10359 10359 10359 10359 10359 10359 10359 10359 10359 10359 10358 10358 10358 10357 10357 10356 10355 10355 10354 10353 10352 10352 10350 10350 10349 10349 10347 10347 10345 10345 10344 10343 10342 10340
10404 10402 10400 10398 10396 10394 10392 10389 10387 10385 10384 10382 10381 10380 10379 10377 10375 10373 10371 10369 10367 10366 10365 10363 10362 10360 10359 10359 10358 10357 10357 10356 10356 10355 10355 10355 10355 10355 10355 10355 10355 10355 10355 10355 10355 10355 10355 10355 10355 10355 10356 10356 10356 10356 10356 10356 10356 10356 10356 10356 10355 10355 10355 10355 10354 10354 10354 10353 10352 10351 10350 10349 10349 10348 10347 10346 10345 10344 10343 10342 10341 10340 10339 10338 10337 10336
10398 10396 10394 10392 10390 10388 10385 10383 10381 10380 10379 10377 10376 10374 10373 10371 10370 10368 10366 10365 10363 10362 10360 10359 10358 10357 10355 10355 10354 10354 10354 10353 10352 10352 10352 10352 10352 10352 10352 10352 10352 10352 10352 10352 10352 10352 10352 10352 10353 10353 10353 10353 10353 10353 10353 10353 10353 10353 10352 10353 10352 10352 10352 10351 10351 10350 10350 10349 10348 10347 10347 10345 10345 10344 10343 10342 10341 10340 10339 10338 10337 10336 10335 10334 10332 10331
10392 10390 10388 10386 10384 10382 10380 10377 10375 10374 10373 10372 10370 10369 10368 10366 10365 10363 10362 10360 10359 10357 10356 10355 10354 10353 10352 10351 10350 10350 10350 10349 10349 10349 10349 10349 10349 10349 10349 10349 10349 10349 10349 10349 10349 10349 10350 10350 10350 10350 10350 10350 10350 10350 10350 10350 10350 10350 10349 10349 10349 10349 10349 10348 10347 10347 10346 10345 10344 10344 10343 10342 10341 10340 10339 10338 10337 10336 10335 10334 10332 10331 10330 10329 10327 10326
10385 10384 10382 10380 10379 10376 10374 10372 10370 10369 10368 10367 10365 10364 10363 10362 10360 10359 10357 10356 10355 10354 10352 10351 10350 10349 10349 10348 10347 10347 10347 10346 10346 10346 10346 10346 10346 10346 10346 10346 10346 10346 10346 10347 10347 10347 10347 10347 10347 10347 10347 10347 10347 10347 10347 10347 10347 10347 10346 10345 10345 10345 10345 10345 10344 10343 10342 10342 10340 10340 10339 10338 10337 10336 10335 10334 10333 10332 10330 10329 10328 10327 10325 10324 10322 10321
10379 10378 10376 10374 10373 10371 10369 10367 10365 10364 10363 10362 10360 10359 10358 10357 10355 10354 10352 10352 10350 10349 10348 10347 10347 10345 10345 10344 10344 10344 10344 10343 10343 10343 10343 10343 10343 10343 10343 10343 10344 10344 10344 10344 10344 10344 10344 10344 10344 10344 10344 10344 10344 10344 10344 10344 10344 10343 10343 10342 10342 10341 10341 10341 10340 10339 10338 10337 10337 10336 10335 10334 10333 10332 10331 10330 10329 10327 10326 10325 10323 10322 10320 10319 10318 10317
10374 10372 10370 10369 10367 10365 10364 10362 10360 10359 10358 10357 10355 10354 10354 10352 10351 10350 10349 10347 10346 10345 10344 10344 10343 10342 10342 10341 10340 10340 10340 10340 10340 10340 10340 10340 10340 10340 10340 10340 10340 10340 10341 10341 10341 10341 10341 10342 10342 10341 10341 10341 10341 10341 10340 10340 10340 10340 10339 10339 10338 10338 10337 10337 10336 10335 10334 10333 10332 10332 10331 10330 10329 10328 10327 10326 10324 10323 10322 10320 10319 10317 10315 10314 10312 10312
10368 10366 10365 10364 10362 10360 10358 10357 10355 10354 10353 10352 10351 10350 10349 10348 10347 10345 10344 10344 10342 10341 10340 10340 10339 10339 10339 10338 10337 10337 10337 10337 10337 10337 10337 10337 10337 10337 10337 10338 10338 10338 10339 10339 10339 10339 10339 10339 10339 10339 10339 10339 10339 10338 10337 10337 10337 10336 10336 10335 10335 10334 10333 10332 10332 10332 10330 10329 10329 10327 10327 10326 10325 10324 10323 10322 10320 10319 10317 10315 10314 10312 10311 10309 10308 10306
10362 10360 10359 10358 10356 10355 10353 10352 10350 10349 10348 10347 10346 10345 10344 10344 10342 10342 10340 10339 10339 10338 10337 10336 10336 10335 10335 10334 10334 10334 10334 10334 10334 10334 10334 10334 10334 10335 10335 10335 10335 10335 10335 10336 10335 10335 10335 10335 10335 10335 10335 10336 10335 10335 10334 10334 10333 10332 10332 10332 10332 10330 10329 10329 10328 10327 10326 10325 10324 10324 10323 10322 10321 10320 10319 10317 10316 10314 10312 10311 10309 10307 10306 10305 10303 10302
10357 10355 10354 10352 10351 10350 10348 10347 10345 10345 10344 10343 10342 10341 10340 10339 10338 10337 10337 10335 10335 10334 10334 10333 10332 10332 10332 10331 10331 10331 10331 10331 10331 10331 10332 10332 10332 10332 10332 10332 10333 10333 10333 10333 10333 10333 10333 10332 10332 10333 10333 10333 10332 10332 10331 10330 10329 10329 10329 10328 10327 10327 10325 10325 10324 10323 10322 10321 10320 10319 10319 10318 10317 10315 10314 10312 10310 10309 10308 10306 10305 10303 10301 10300 10299 10297
10351 10350 10348 10347 10346 10345 10343 10342 10341 10340 10339 10338 10337 10337 10336 10335 10334 10334 10332 10332 10331 10330 10330 10329 10329 10329 10328 10328 10328 10328 10328 10328 10328 10329 10329 10329 10329 10329 10330 10330 10330 10330 10330 10330 10330 10330 10330 10330 10330 10330 10330 10330 10329 10329 10328 10327 10326 10325 10324 10324 10323 10322 10321 10320 10320 10319 10318 10317 10316 10315 10314 10314 10312 10310 10309 10307 10305 10304 10302 10301 10300 10298 10297 10295 10294 10292
10345 10344 10343 10342 10340 10340 10339 10337 10337 10336 10335 10334 10333 10332 10332 10331 10330 10330 10329 10328 10327 10327 10326 10326 10325 10325 10325 10325 10325 10325 10325 10325 10325 10325 10326 10326 10327 10327 10327 10327 10327 10327 10327 10327 10327 10327 10327 10327 10327 10327 10327 10326 10325 10325 10324 10324 10323 10322 10321 10320 10319 10318 10317 10316 10315 10314 10314 10313 10312 10310 10310 10309 10307 10305 10304 10302 10300 10299 10297 10296 10295 10294 10292 10290 10289 10287
10340 10339 10338 10337 10336 10335 10334 10333 10332 10332 10331 10330 10329 10329 10328 10327 10327 10326 10325 10325 10324 10324 10323 10322 10322 10322 10322 10322 10322 10322 10322 10322 10322 10323 10323 10324 10324 10324 10324 10324 10324 10324 10324 10324 10325 10325 10325 10325 10325 10324 10324 10323 10322 10321 10320 10320 10319 10319 10317 10316 10315 10314 10312 10312 10310 10310 10309 10308 10307 10306 10305 10304 10302 10300 10298 10296 10295 10293 10292 10290 10290 10289 10287 10285 10284 10282
10335 10334 10333 10332 10331 10330 10329 10329 10328 10327 10327 10326 10325 10325 10324 10324 10323 10322 10322 10321 10320 10320 10320 10319 10319 10319 10319 10319 10319 10319 10319 10320 10320 10320 10320 10321 10321 10321 10321 10322 10322 10322 10322 10322 10322 10322 10322 10322 10321 10321 10320 10320 10319 10318 10317 10316 10315 10315 10314 10312 10311 10310 10309 10307 10306 10305 10305 10304 10302 10301 10300 10299 10297 10295 10294 10291 10289 10287 10287 10285 10284 10283 10282 10280 10279 10276
10330 10329 10328 10327 10327 10325 10325 10325 10324 10324 10323 10322 10322 10321 10320 10320 10319 10319 10319 10318 10317 10317 10317 10316 10316 10316 10316 10316 10316 10317 10317 10317 10317 10317 10318 10318 10318 10319 10319 10318 10319 10318 10318 10318 10318 10318 10318 10318 10317 10317 10317 10317 10316 10315 10314 10312 10312 10311 10310 10309 10307 10306 10305 10303 10302 10301 10300 10299 10297 10296 10294 10293 10292 10290 10289 10286 10284 10282 10281 10280 10279 10278 10277 10275 10273 10271
10325 10324 10324 10323 10322 10321 10321 10320 10320 10319 10319 10319 10318 10317 10317 10316 10316 10315 10315 10314 10314 10314 10313 10313 10313 10313 10313 10313 10314 10314 10314 10314 10314 10315 10315 10315 10315 10315 10315 10315 10315 10315 10315 10315 10315 10315 10315 10314 10314 10313 10313 10313 10312 10312 10311 10309 10309 10307 10306 10305 10304 10302 10301 10299 10298 10297 10295 10294 10292 10291 10289 10287 10286 10284 10283 10281 10279 10277 10276 10275 10274 10272 10271 10270 10268 10265